Weather History for Lambertville, MI

Change the Weather History Date:

Friday, October 19, 2012

  Actual Average (KTOL) Record (KTOL)
Temperature  
Mean Temperature 50 °F 51 °F  
Max Temperature 55 °F 62 °F 85 °F (1953)
Min Temperature 45 °F 41 °F 21 °F (1972)
Degree Days  
Heating Degree Days 15 14  
Month to date heating degree days 213  
Since 1 July heating degree days 337  
Cooling Degree Days 0 0  
Month to date cooling degree days 8  
Year to date cooling degree days 792  
Moisture  
Dew Point 41 °F    
Average Humidity 72    
Maximum Humidity 92    
Minimum Humidity 54    
Precipitation  
Precipitation 0.00 in 0.08 in 1.84 in (2011)
Month to date precipitation 1.62  
Year to date precipitation 27.72  
Snow  
Snow 0.00 in 0.00 in - ()
Month to date snowfall 0.1  
Since 1 July snowfall 0.1  
Since 1 September snowfall 0.1  
Snow Depth -    
Sea Level Pressure  
Sea Level Pressure 29.60 in    
Wind  
Wind Speed 4 mph (South)    
Max Wind Speed 13 mph    
Max Gust Speed 17 mph    
Visibility 10 miles    
Events Rain    
T = Trace of Precipitation, MM = Missing Value Source: NWS Daily Summary

Daily Weather History Graph

Daily Weather History Graph

Search for Another Location

Airport:

Trip Planner

Search our weather history database for the weather conditions in past years. The results will help you decide how hot, cold, wet, or windy it might be!

Date:

Astronomy

Oct. 19, 2012 Rise Set
Actual Time 7:51 AM EDT 6:46 PM EDT
Civil Twilight 7:23 AM EDT 7:14 PM EDT
Nautical Twilight 6:51 AM EDT 7:46 PM EDT
Astronomical Twilight 6:19 AM EDT 8:19 PM EDT
Moon 12:36 PM EDT (10/19) 10:20 PM EDT (10/19)
Length of Visible Light 11h 50m
Length of Day
10h 54m
Waxing Crescent, 23% of the Moon is Illuminated
Oct 19
Waxing Crescent
Oct 21
First Quarter
Oct 29
Full
Nov 6
Last Quarter
Nov 13
New

Hourly Weather History & Observations

Time (EDT) Temp. Windchill Dew Point Humidity Pressure Visibility Wind Dir Wind Speed Gust Speed Precip Events Conditions
12:15 AM 50.5 °F - 34.5 °F 54% 29.66 in 10.0 mi Calm Calm - N/A   Scattered Clouds
12:35 AM 50.0 °F - 34.5 °F 55% 29.65 in 10.0 mi Calm Calm - N/A   Scattered Clouds
12:55 AM 50.0 °F - 34.9 °F 56% 29.64 in 10.0 mi Calm Calm - N/A   Mostly Cloudy
1:15 AM 49.8 °F - 35.4 °F 58% 29.63 in 10.0 mi Calm Calm - N/A   Mostly Cloudy
1:35 AM 49.3 °F - 35.1 °F 58% 29.63 in 10.0 mi Calm Calm - N/A   Scattered Clouds
1:55 AM 48.9 °F - 35.4 °F 60% 29.63 in 10.0 mi SE 3.5 mph - N/A   Clear
2:15 AM 48.2 °F - 35.8 °F 62% 29.63 in 10.0 mi Calm Calm - N/A   Clear
2:35 AM 48.4 °F - 35.6 °F 61% 29.62 in 10.0 mi SE 4.6 mph - N/A   Scattered Clouds
2:55 AM 49.1 °F - 34.9 °F 58% 29.62 in 10.0 mi SE 4.6 mph - N/A   Mostly Cloudy
3:15 AM 49.5 °F - 34.7 °F 57% 29.62 in 10.0 mi South 3.5 mph - N/A   Overcast
3:35 AM 48.9 °F - 35.2 °F 59% 29.62 in 10.0 mi Calm Calm - N/A   Overcast
3:55 AM 48.2 °F - 35.6 °F 62% 29.61 in 10.0 mi SE 6.9 mph - N/A   Overcast
4:15 AM 49.3 °F - 34.9 °F 58% 29.61 in 10.0 mi South 4.6 mph - N/A   Overcast
4:35 AM 49.5 °F - 35.8 °F 59% 29.60 in 10.0 mi SE 4.6 mph - N/A   Mostly Cloudy
4:55 AM 50.0 °F - 37.4 °F 62% 29.60 in 10.0 mi SE 4.6 mph - N/A   Overcast
5:15 AM 50.0 °F - 38.5 °F 65% 29.60 in 10.0 mi SSE 6.9 mph - N/A   Overcast
5:35 AM 50.0 °F - 39.7 °F 68% 29.60 in 10.0 mi SSE 4.6 mph - N/A   Overcast
5:55 AM 50.0 °F - 41.0 °F 71% 29.60 in 10.0 mi SSE 6.9 mph - N/A   Overcast
6:15 AM 50.2 °F - 41.9 °F 73% 29.60 in 10.0 mi SE 4.6 mph - N/A   Overcast
6:35 AM 50.5 °F - 42.3 °F 73% 29.58 in 10.0 mi SE 6.9 mph - N/A   Overcast
6:55 AM 50.9 °F - 42.1 °F 72% 29.59 in 10.0 mi SSE 8.1 mph - N/A   Overcast
7:15 AM 50.9 °F - 42.4 °F 73% 29.60 in 10.0 mi SSE 6.9 mph - N/A   Overcast
7:35 AM 50.9 °F - 42.4 °F 73% 29.60 in 10.0 mi South 6.9 mph - N/A   Overcast
7:55 AM 50.9 °F - 42.4 °F 73% 29.60 in 10.0 mi South 5.8 mph - N/A Rain Rain
8:15 AM 50.2 °F - 42.3 °F 74% 29.60 in 10.0 mi South 3.5 mph - N/A Rain Light Rain
8:35 AM 50.0 °F - 41.5 °F 73% 29.60 in 10.0 mi South 4.6 mph - N/A   Light Drizzle
8:55 AM 50.2 °F - 41.2 °F 71% 29.61 in 10.0 mi South 4.6 mph - N/A Rain Rain
9:15 AM 50.2 °F - 41.4 °F 72% 29.60 in 10.0 mi SSE 5.8 mph - N/A Rain Light Rain
9:35 AM 50.4 °F - 41.9 °F 73% 29.60 in 10.0 mi South 3.5 mph - N/A   Overcast
9:55 AM 51.3 °F - 41.4 °F 69% 29.60 in 10.0 mi South 5.8 mph - N/A   Overcast
10:15 AM 50.5 °F - 41.2 °F 70% 29.60 in 10.0 mi South 8.1 mph - N/A Rain Light Rain
10:35 AM 49.3 °F - 42.4 °F 77% 29.61 in 10.0 mi South 9.2 mph - N/A Rain Light Rain
10:55 AM 50.4 °F - 44.6 °F 81% 29.60 in 10.0 mi SE 3.5 mph - N/A Rain Light Rain
11:15 AM 51.4 °F - 44.6 °F 77% 29.59 in 10.0 mi South 5.8 mph - N/A Rain Light Rain
11:35 AM 51.8 °F - 42.4 °F 70% 29.59 in 10.0 mi SSE 5.8 mph - N/A   Overcast
11:55 AM 52.0 °F - 42.1 °F 69% 29.59 in 10.0 mi SSE 5.8 mph - N/A   Mostly Cloudy
12:15 PM 52.5 °F - 41.0 °F 65% 29.59 in 10.0 mi SSE 5.8 mph - N/A   Mostly Cloudy
12:35 PM 53.6 °F - 40.5 °F 61% 29.58 in 10.0 mi SSE 8.1 mph 17.3 mph N/A   Overcast
12:55 PM 54.5 °F - 39.7 °F 57% 29.57 in 10.0 mi South 9.2 mph - N/A   Mostly Cloudy
1:15 PM 55.0 °F - 39.9 °F 57% 29.57 in 10.0 mi South 11.5 mph 16.1 mph N/A   Mostly Cloudy
1:35 PM 55.8 °F - 39.2 °F 54% 29.56 in 10.0 mi South 9.2 mph 17.3 mph N/A   Mostly Cloudy
1:55 PM 55.0 °F - 39.0 °F 55% 29.56 in 10.0 mi South 8.1 mph 16.1 mph N/A   Overcast
2:15 PM 55.4 °F - 39.0 °F 54% 29.56 in 10.0 mi South 10.4 mph 17.3 mph N/A   Overcast
2:35 PM 54.9 °F - 38.3 °F 54% 29.56 in 10.0 mi South 12.7 mph 16.1 mph N/A   Overcast
2:55 PM 54.9 °F - 38.3 °F 54% 29.56 in 10.0 mi South 6.9 mph - N/A   Overcast
3:15 PM 54.1 °F - 38.5 °F 55% 29.56 in 10.0 mi SSE 9.2 mph - N/A Rain Light Rain
3:35 PM 52.7 °F - 40.1 °F 62% 29.57 in 10.0 mi South 11.5 mph 16.1 mph N/A Rain Light Rain
3:55 PM 51.4 °F - 41.4 °F 68% 29.57 in 10.0 mi South 5.8 mph - N/A Rain Rain
4:15 PM 51.1 °F - 42.3 °F 72% 29.58 in 10.0 mi South 9.2 mph - N/A Rain Light Rain
4:35 PM 50.4 °F - 43.0 °F 76% 29.59 in 10.0 mi South 6.9 mph - N/A Rain Light Rain
4:55 PM 49.5 °F - 43.3 °F 79% 29.59 in 10.0 mi South 4.6 mph - N/A Rain Light Rain
5:15 PM 49.1 °F - 44.2 °F 83% 29.59 in 10.0 mi South 4.6 mph - N/A Rain Light Rain
5:35 PM 48.7 °F - 44.6 °F 86% 29.60 in 7.0 mi South 5.8 mph - N/A Rain Light Rain
5:55 PM 47.7 °F - 43.3 °F 85% 29.61 in 10.0 mi SSW 10.4 mph - N/A Rain Rain
6:15 PM 47.3 °F - 43.2 °F 86% 29.61 in 10.0 mi South 5.8 mph - N/A Rain Light Rain
6:35 PM 46.9 °F - 43.7 °F 88% 29.61 in 10.0 mi South 4.6 mph - N/A Rain Rain
6:55 PM 46.9 °F - 43.7 °F 88% 29.61 in 10.0 mi SSW 4.6 mph - N/A Rain Rain
7:15 PM 46.6 °F - 43.3 °F 88% 29.61 in 10.0 mi SSW 5.8 mph - N/A   Drizzle
7:35 PM 46.4 °F 43.5 °F 43.2 °F 88% 29.61 in 10.0 mi SSW 5.8 mph - N/A Rain Rain
7:55 PM 46.0 °F 43.9 °F 43.0 °F 89% 29.61 in 10.0 mi SSW 4.6 mph - N/A   Drizzle
8:15 PM 46.0 °F 43.1 °F 43.0 °F 89% 29.61 in 10.0 mi SSW 5.8 mph - N/A   Drizzle
8:35 PM 45.9 °F 44.6 °F 43.0 °F 90% 29.61 in 10.0 mi South 3.5 mph - N/A Rain Rain
8:55 PM 45.9 °F - 43.2 °F 90% 29.60 in 10.0 mi Calm Calm - N/A   Drizzle
9:15 PM 45.7 °F 43.4 °F 43.2 °F 91% 29.60 in 10.0 mi South 4.6 mph - N/A   Drizzle
9:35 PM 45.7 °F 44.4 °F 43.0 °F 90% 29.60 in 10.0 mi SSW 3.5 mph - N/A   Drizzle
9:55 PM 45.7 °F 44.4 °F 43.2 °F 91% 29.61 in 7.0 mi South 3.5 mph - N/A Rain Rain
10:15 PM 45.7 °F 43.4 °F 43.2 °F 91% 29.60 in 10.0 mi South 4.6 mph - N/A   Drizzle
10:35 PM 45.9 °F 44.6 °F 43.3 °F 91% 29.60 in 7.0 mi SSW 3.5 mph - N/A Rain Rain
10:55 PM 46.0 °F 43.9 °F 43.7 °F 92% 29.60 in 10.0 mi South 4.6 mph - N/A   Light Drizzle
11:15 PM 46.4 °F 43.5 °F 43.7 °F 90% 29.60 in 10.0 mi SSW 5.8 mph - N/A   Overcast
11:35 PM 46.4 °F 43.5 °F 43.9 °F 91% 29.61 in 5.0 mi South 5.8 mph - N/A   Light Drizzle
11:55 PM 46.4 °F 43.5 °F 43.9 °F 91% 29.60 in 7.0 mi SSW 5.8 mph - N/A   Overcast